Weather History for Hattiesburg, MS

Change the Weather History Date:

Tuesday, January 22, 2008

  Actual Average Record
Temperature  
Mean Temperature 46 °F 48 °F  
Max Temperature 55 °F 60 °F 80 °F (1952)
Min Temperature 37 °F 37 °F 5 °F (1985)
Degree Days  
Heating Degree Days 19 17  
Month to date heating degree days 367  
Since 1 July heating degree days 1152  
Cooling Degree Days 0 0  
Month to date cooling degree days 0  
Year to date cooling degree days 0  
Moisture  
Dew Point 44 °F    
Average Humidity 87    
Maximum Humidity 94    
Minimum Humidity 76    
Precipitation  
Precipitation 0.02 in 0.18 in 2.00 in (1987)
Month to date precipitation 3.94  
Year to date precipitation 3.94  
Sea Level Pressure  
Sea Level Pressure 30.23 in    
Wind  
Wind Speed 1 mph (NNE)    
Max Wind Speed 6 mph    
Max Gust Speed -    
Visibility 6 miles    
Events Rain    
T = Trace of Precipitation, MM = Missing Value Source: NWS Daily Summary

Daily Weather History Graph

Daily Weather History Graph

Search for Another Location

Airport:

Trip Planner

Search our weather history database for the weather conditions in past years. The results will help you decide how hot, cold, wet, or windy it might be!

Date:

Astronomy

Jan. 22, 2008 Rise Set
Actual Time 6:54 AM CST 5:22 PM CST
Civil Twilight 6:28 AM CST 5:48 PM CST
Nautical Twilight 5:59 AM CST 6:18 PM CST
Astronomical Twilight 5:30 AM CST 6:47 PM CST
Moon 5:42 PM CST (1/22) 7:05 AM CST (1/22)
Length of Visible Light 11h 19m
Length of Day
10h 28m
Full, 100% of the Moon is Illuminated
Jan 22
Full
Jan 29
Last Quarter
Feb 6
New
Feb 13
First Quarter
Feb 20
Full

Hourly Weather History & Observations

Time (CST) Temp. Windchill Dew Point Humidity Pressure Visibility Wind Dir Wind Speed Gust Speed Precip Events Conditions
12:53 AM 39.0 °F - 33.1 °F 79% 30.31 in 10.0 mi Calm Calm - N/A   Clear
1:53 AM 37.0 °F - 33.1 °F 86% 30.29 in 10.0 mi Calm Calm - N/A   Clear
2:53 AM 39.0 °F - 35.1 °F 86% 30.28 in 10.0 mi Calm Calm - N/A   Overcast
3:53 AM 37.9 °F - 34.0 °F 86% 30.26 in 10.0 mi Calm Calm - N/A   Partly Cloudy
4:23 AM 39.2 °F - 35.6 °F 87% 30.25 in 10.0 mi Calm Calm - N/A   Mostly Cloudy
4:53 AM 39.9 °F - 35.1 °F 83% 30.25 in 10.0 mi Calm Calm - N/A   Overcast
5:53 AM 42.1 °F 40.2 °F 35.1 °F 76% 30.27 in 10.0 mi NW 3.5 mph - N/A   Overcast
6:53 AM 43.0 °F 41.3 °F 36.0 °F 76% 30.28 in 10.0 mi NNW 3.5 mph - 0.00 in   Overcast
7:14 AM 44.6 °F - 37.4 °F 76% 30.28 in 10.0 mi Calm Calm - N/A   Overcast
7:53 AM 45.0 °F - 37.9 °F 76% 30.29 in 10.0 mi Calm Calm - N/A   Overcast
8:53 AM 45.0 °F 43.5 °F 41.0 °F 86% 30.29 in 6.0 mi NE 3.5 mph - N/A   Overcast
9:53 AM 45.0 °F 42.6 °F 43.0 °F 93% 30.30 in 4.0 mi NNE 4.6 mph - 0.01 in   Overcast
10:30 AM 44.6 °F 42.2 °F 42.8 °F 93% 30.29 in 2.5 mi NE 4.6 mph - 0.01 in Rain Light Rain
10:53 AM 46.0 °F 43.9 °F 44.1 °F 93% 30.30 in 2.5 mi NNE 4.6 mph - 0.01 in Rain Light Rain
11:53 AM 46.9 °F - 45.0 °F 93% 30.25 in 2.0 mi ENE 4.6 mph - 0.00 in   Overcast
12:53 PM 48.0 °F - 46.0 °F 93% 30.21 in 2.5 mi Calm Calm - N/A   Overcast
1:07 PM 48.2 °F - 46.4 °F 93% 30.20 in 3.0 mi Calm Calm - N/A   Overcast
1:53 PM 50.0 °F - 46.9 °F 89% 30.18 in 4.0 mi Calm Calm - N/A   Overcast
2:53 PM 54.0 °F - 48.9 °F 83% 30.16 in 7.0 mi Calm Calm - N/A   Overcast
3:53 PM 55.0 °F - 50.0 °F 83% 30.16 in 7.0 mi Calm Calm - N/A   Overcast
4:53 PM 55.9 °F - 50.0 °F 80% 30.17 in 7.0 mi North 3.5 mph - N/A   Overcast
5:29 PM 55.4 °F - 50.0 °F 82% 30.18 in 6.0 mi North 4.6 mph - N/A   Haze
5:53 PM 55.0 °F - 51.1 °F 86% 30.19 in 5.0 mi Calm Calm - N/A   Overcast
6:06 PM 53.6 °F - 51.8 °F 94% 30.19 in 4.0 mi Calm Calm - 0.00 in Rain Light Rain
6:17 PM 53.6 °F - 51.8 °F 94% 30.19 in 5.0 mi Calm Calm - 0.00 in   Overcast
6:53 PM 53.1 °F - 51.1 °F 93% 30.19 in 3.0 mi Calm Calm - 0.00 in   Overcast
7:51 PM 53.6 °F - 51.8 °F 94% 30.19 in 4.0 mi Calm Calm - N/A   Overcast
7:53 PM 54.0 °F - 51.1 °F 90% 30.19 in 4.0 mi Calm Calm - N/A   Overcast
8:53 PM 54.0 °F - 51.1 °F 90% 30.19 in 4.0 mi Calm Calm - N/A   Overcast
9:53 PM 53.1 °F - 50.0 °F 89% 30.20 in 4.0 mi North 5.8 mph - N/A   Overcast
10:53 PM 52.0 °F - 50.0 °F 93% 30.20 in 5.0 mi Variable 3.5 mph - N/A   Overcast
11:53 PM 52.0 °F - 48.9 °F 89% 30.18 in 8.0 mi NNE 4.6 mph - N/A   Overcast